| time (UTC) | temp F | wind direction | speed knots | gust knots | rain 1hr in | rain 24hr in | rain mn in | humidity % | barometer mb |
| 20260906100902 | 63 | 42 | 0.0 | 5.2 | 0.00 | 0.01 | 0.00 | 1018.7 | |
| 20260906100035 | 63 | 48 | 1.7 | 5.2 | 0.00 | 0.01 | 0.00 | 1018.7 | |
| 20260906095902 | 63 | 56 | 0.0 | 1.7 | 0.00 | 0.01 | 0.00 | 1018.7 | |
| 20260906095041 | 63 | 18 | 0.0 | 2.6 | 0.00 | 0.01 | 0.00 | 1019.0 | |
| 20260906094901 | 63 | 18 | 0.0 | 2.6 | 0.00 | 0.01 | 0.00 | 1019.0 | |
| 20260906094035 | 63 | 45 | 0.0 | 0.0 | 0.00 | 0.01 | 0.00 | 1019.0 | |
| 20260906093901 | 62 | 45 | 0.0 | 0.0 | 0.00 | 0.01 | 0.00 | 1019.0 | |
| 20260906092035 | 62 | 45 | 0.0 | 0.0 | 0.00 | 0.01 | 0.00 | 1019.0 | |
| 20260906091901 | 62 | 45 | 0.0 | 0.0 | 0.00 | 0.01 | 0.00 | 1019.0 | |
| 20260906091324 | 62 | 45 | 0.0 | 0.0 | 0.00 | 0.01 | 0.00 | 1019.0 | |
| 20260906091238 | 62 | 45 | 0.0 | 0.0 | 0.00 | 0.01 | 0.00 | 1019.0 | |
| 20260906090901 | 62 | 45 | 0.0 | 0.0 | 0.00 | 0.01 | 0.00 | 1019.0 | |
| 20260906090136 | 62 | 45 | 0.0 | 0.0 | 0.00 | 0.01 | 0.00 | 1019.0 | |
| 20260906090034 | 62 | 45 | 0.0 | 0.0 | 0.00 | 0.01 | 0.00 | 1019.0 | |
| 20260906085901 | 62 | 45 | 0.0 | 0.0 | 0.00 | 0.01 | 0.00 | 1019.0 | |
| 20260906085332 | 62 | 45 | 0.0 | 0.0 | 0.00 | 0.01 | 0.00 | 1019.0 | |
| 20260906084900 | 62 | 45 | 0.0 | 0.0 | 0.00 | 0.01 | 0.00 | 1019.0 | |
| 20260906084242 | 63 | 45 | 0.0 | 0.0 | 0.00 | 0.01 | 0.00 | 1019.0 | |
| 20260906084035 | 63 | 45 | 0.0 | 0.0 | 0.00 | 0.01 | 0.00 | 1019.0 | |
| 20260906083901 | 63 | 45 | 0.0 | 0.0 | 0.00 | 0.01 | 0.00 | 1019.0 | |
| 20260906083203 | 63 | 45 | 0.0 | 0.0 | 0.00 | 0.01 | 0.00 | 1018.7 | |
| 20260906082905 | 63 | 45 | 0.0 | 0.0 | 0.00 | 0.01 | 0.00 | 1018.7 | |
| 20260906082242 | 63 | 45 | 0.0 | 0.0 | 0.00 | 0.01 | 0.00 | 1018.7 | |
| 20260906082035 | 63 | 45 | 0.0 | 0.0 | 0.00 | 0.01 | 0.00 | 1018.7 | |
| 20260906081941 | 63 | 45 | 0.0 | 0.0 | 0.00 | 0.01 | 0.00 | 1018.7 | |
| 20260906081901 | 63 | 45 | 0.0 | 0.0 | 0.00 | 0.01 | 0.00 | 1018.7 | |
| 20260906080901 | 63 | 45 | 0.9 | 2.6 | 0.00 | 0.01 | 0.00 | 1019.0 | |
| 20260906080035 | 63 | 59 | 0.0 | 0.0 | 0.00 | 0.01 | 0.00 | 1018.7 | |
| 20260906075904 | 63 | 59 | 0.0 | 0.0 | 0.00 | 0.01 | 0.00 | 1018.7 | |
| 20260906075325 | 63 | 59 | 0.0 | 0.0 | 0.00 | 0.01 | 0.00 | 1018.7 | |
| 20260906074900 | 63 | 59 | 0.0 | 0.0 | 0.00 | 0.01 | 0.00 | 1018.7 | |
| 20260906074308 | 63 | 59 | 0.0 | 2.6 | 0.00 | 0.01 | 0.00 | 1018.7 | |
| 20260906074035 | 63 | 59 | 0.0 | 2.6 | 0.00 | 0.01 | 0.00 | 1018.7 | |
| 20260906073900 | 63 | 59 | 0.0 | 2.6 | 0.00 | 0.01 | 0.00 | 1018.7 | |
| 20260906073211 | 63 | 34 | 0.9 | 2.6 | 0.00 | 0.01 | 0.00 | 1019.0 | |
| 20260906072901 | 63 | 34 | 0.9 | 2.6 | 0.00 | 0.01 | 0.00 | 1019.0 | |
| 20260906072034 | 63 | 55 | 0.9 | 2.6 | 0.00 | 0.01 | 0.00 | 1019.0 | |
| 20260906070901 | 64 | 56 | 0.0 | 0.0 | 0.00 | 0.01 | 0.00 | 1019.0 | |
| 20260906070034 | 64 | 56 | 0.0 | 0.0 | 0.00 | 0.01 | 0.00 | 1019.0 | |
| 20260906065859 | 64 | 56 | 0.0 | 0.0 | 0.00 | 0.01 | 0.00 | 1019.0 | |
| 20260906065056 | 64 | 56 | 0.0 | 0.0 | 0.00 | 0.01 | 0.00 | 1019.3 | |
| 20260906064901 | 64 | 56 | 0.0 | 0.0 | 0.00 | 0.01 | 0.00 | 1019.3 | |
| 20260906064128 | 64 | 56 | 0.0 | 0.0 | 0.00 | 0.01 | 0.00 | 1019.3 | |
| 20260906064034 | 64 | 56 | 0.0 | 0.0 | 0.00 | 0.01 | 0.00 | 1019.0 | |
| 20260906063901 | 64 | 56 | 0.0 | 0.0 | 0.00 | 0.01 | 0.00 | 1019.3 | |
| 20260906062901 | 64 | 56 | 0.0 | 0.0 | 0.00 | 0.01 | 0.00 | 1019.3 | |
| 20260906062111 | 65 | 56 | 0.0 | 0.0 | 0.00 | 0.01 | 0.00 | 1019.3 | |
| 20260906062034 | 64 | 56 | 0.0 | 0.0 | 0.00 | 0.01 | 0.00 | 1019.3 | |
| 20260906061900 | 65 | 56 | 0.0 | 0.0 | 0.00 | 0.01 | 0.00 | 1019.3 | |
| 20260906060859 | 64 | 56 | 0.0 | 0.0 | 0.00 | 0.01 | 0.00 | 1019.3 | |
| 20260906060035 | 65 | 56 | 0.0 | 0.0 | 0.00 | 0.01 | 0.00 | 1019.3 | |
| 20260906055902 | 65 | 56 | 0.0 | 0.0 | 0.00 | 0.01 | 0.00 | 1019.3 | |
| 20260906055149 | 65 | 56 | 0.0 | 0.0 | 0.00 | 0.01 | 0.00 | 1019.3 | |
| 20260906054901 | 65 | 56 | 0.0 | 0.0 | 0.00 | 0.01 | 0.00 | 1019.3 | |
| 20260906054035 | 65 | 56 | 0.0 | 0.0 | 0.00 | 0.01 | 0.00 | 1019.3 | |
| 20260906053902 | 65 | 56 | 0.0 | 0.0 | 0.00 | 0.01 | 0.00 | 1019.3 | |
| 20260906052901 | 66 | 56 | 0.0 | 0.0 | 0.00 | 0.01 | 0.00 | 1019.0 | |
| 20260906052035 | 66 | 56 | 0.0 | 3.5 | 0.00 | 0.01 | 0.00 | 1019.0 | |
| 20260906050901 | 66 | 34 | 2.6 | 6.1 | 0.00 | 0.01 | 0.00 | 1019.0 | |
| 20260906050034 | 66 | 27 | 1.7 | 3.5 | 0.00 | 0.02 | 0.01 | 1019.0 | |
| 20260906045901 | 66 | 21 | 2.6 | 3.5 | 0.00 | 0.02 | 0.01 | 1019.0 | |
| 20260906045338 | 67 | 11 | 1.7 | 2.6 | 0.00 | 0.02 | 0.01 | 1019.0 | |
| 20260906044900 | 67 | 11 | 1.7 | 2.6 | 0.00 | 0.02 | 0.01 | 1019.0 | |
| 20260906044459 | 67 | 42 | 1.7 | 3.5 | 0.00 | 0.02 | 0.01 | 1019.0 | |
| 20260906044034 | 67 | 23 | 1.7 | 3.5 | 0.00 | 0.02 | 0.01 | 1019.0 | |
| 20260906043901 | 67 | 42 | 1.7 | 3.5 | 0.00 | 0.02 | 0.01 | 1019.0 | |
| 20260906042034 | 67 | 13 | 2.6 | 4.3 | 0.00 | 0.02 | 0.01 | 1018.7 | |
| 20260906041901 | 68 | 56 | 2.6 | 4.3 | 0.00 | 0.02 | 0.01 | 1018.7 | |
| 20260906040901 | 68 | 14 | 2.6 | 4.3 | 0.00 | 0.02 | 0.01 | 1018.7 | |
| 20260906040034 | 68 | 24 | 2.6 | 4.3 | 0.00 | 0.02 | 0.01 | 1018.7 | |
| 20260906034034 | 68 | 59 | 2.6 | 4.3 | 0.00 | 0.02 | 0.01 | 1018.3 | |
| 20260906033902 | 68 | 27 | 3.5 | 4.3 | 0.00 | 0.02 | 0.01 | 1018.3 | |
| 20260906032859 | 69 | 49 | 2.6 | 5.2 | 0.00 | 0.02 | 0.01 | 1018.0 | |
| 20260906032209 | 68 | 13 | 3.5 | 7.0 | 0.00 | 0.02 | 0.01 | 1018.0 | |
| 20260906032033 | 69 | 55 | 3.5 | 7.0 | 0.00 | 0.02 | 0.01 | 1018.0 | |
| 20260906031900 | 68 | 13 | 3.5 | 7.0 | 0.00 | 0.02 | 0.01 | 1018.0 | |
| 20260906030902 | 68 | 15 | 4.3 | 6.1 | 0.00 | 0.02 | 0.01 | 1018.0 | |
| 20260906030035 | 69 | 30 | 2.6 | 6.1 | 0.00 | 0.02 | 0.01 | 1018.0 | |
| 20260906025902 | 69 | 34 | 2.6 | 6.1 | 0.00 | 0.02 | 0.01 | 1018.0 | |
| 20260906024035 | 69 | 25 | 4.3 | 7.0 | 0.00 | 0.02 | 0.01 | 1017.3 | |
| 20260906023900 | 69 | 10 | 4.3 | 7.0 | 0.00 | 0.02 | 0.01 | 1017.3 | |
| 20260906022035 | 69 | 66 | 3.5 | 6.1 | 0.00 | 0.02 | 0.01 | 1017.3 | |
| 20260906021903 | 69 | 49 | 3.5 | 6.1 | 0.00 | 0.02 | 0.01 | 1017.3 | |
| 20260906020902 | 69 | 37 | 3.5 | 7.0 | 0.00 | 0.02 | 0.01 | 1017.3 | |
| 20260906020034 | 70 | 49 | 4.3 | 7.0 | 0.00 | 0.02 | 0.01 | 1017.0 | |
| 20260906015900 | 70 | 39 | 4.3 | 7.0 | 0.00 | 0.02 | 0.01 | 1017.0 | |
| 20260906014900 | 70 | 37 | 4.3 | 7.8 | 0.00 | 0.02 | 0.01 | 1017.0 | |
| 20260906014220 | 70 | 69 | 3.5 | 7.0 | 0.00 | 0.02 | 0.01 | 1016.6 | |
| 20260906014035 | 70 | 46 | 3.5 | 7.0 | 0.00 | 0.02 | 0.01 | 1016.6 | |
| 20260906013901 | 70 | 69 | 3.5 | 7.0 | 0.00 | 0.02 | 0.01 | 1016.6 | |
| 20260906012902 | 70 | 53 | 4.3 | 7.0 | 0.00 | 0.02 | 0.01 | 1016.6 | |
| 20260906012140 | 71 | 52 | 2.6 | 6.1 | 0.00 | 0.02 | 0.01 | 1016.6 | |
| 20260906012035 | 71 | 42 | 3.5 | 6.1 | 0.00 | 0.02 | 0.01 | 1016.6 | |
| 20260906011901 | 71 | 52 | 2.6 | 6.1 | 0.00 | 0.02 | 0.01 | 1016.6 | |
| 20260906010902 | 71 | 14 | 3.5 | 7.8 | 0.00 | 0.02 | 0.01 | 1016.3 | |
| 20260906010224 | 71 | 46 | 4.3 | 6.1 | 0.00 | 0.02 | 0.01 | 1016.3 | |
| 20260906010035 | 71 | 42 | 5.2 | 6.1 | 0.00 | 0.02 | 0.01 | 1016.3 | |
| 20260906005901 | 71 | 46 | 4.3 | 6.1 | 0.00 | 0.02 | 0.01 | 1016.3 | |
| 20260906004904 | 71 | 56 | 3.5 | 7.0 | 0.00 | 0.02 | 0.01 | 1016.3 | |
| 20260906004035 | 71 | 75 | 3.5 | 6.1 | 0.00 | 0.02 | 0.01 | 1016.3 | |
| 20260906003901 | 71 | 11 | 4.3 | 6.1 | 0.00 | 0.02 | 0.01 | 1016.3 | |
| 20260906002034 | 71 | 52 | 1.7 | 4.3 | 0.00 | 0.02 | 0.01 | 1016.6 | |
| 20260906001901 | 71 | 72 | 2.6 | 4.3 | 0.00 | 0.02 | 0.01 | 1016.6 | |
| 20260906001233 | 72 | 32 | 1.7 | 4.3 | 0.00 | 0.02 | 0.01 | 1016.6 | |
| 20260906000900 | 72 | 32 | 1.7 | 4.3 | 0.00 | 0.02 | 0.01 | 1016.6 | |
| 20260906000034 | 72 | 14 | 3.5 | 5.2 | 0.00 | 0.02 | 0.01 | 1016.6 | |
| 20260905235901 | 72 | 10 | 3.5 | 5.2 | 0.00 | 0.02 | 0.01 | 1017.0 | |
| 20260905234901 | 73 | 38 | 2.6 | 7.0 | 0.00 | 0.02 | 0.01 | 1016.6 | |
| 20260905234348 | 73 | 41 | 4.3 | 6.1 | 0.00 | 0.02 | 0.01 | 1016.6 | |
| 20260905234034 | 73 | 35 | 4.3 | 7.0 | 0.00 | 0.02 | 0.01 | 1016.6 | |
| 20260905233859 | 73 | 41 | 4.3 | 6.1 | 0.00 | 0.02 | 0.01 | 1016.6 | |
| 20260905232034 | 74 | 68 | 4.3 | 7.8 | 0.00 | 0.02 | 0.01 | 1017.0 | |
| 20260905231236 | 75 | 58 | 4.3 | 7.8 | 0.00 | 0.02 | 0.01 | 1017.0 | |
| 20260905230902 | 75 | 58 | 4.3 | 7.8 | 0.00 | 0.02 | 0.01 | 1017.0 | |
| 20260905230033 | 75 | 63 | 6.1 | 8.7 | 0.00 | 0.02 | 0.01 | 1017.0 | |
| 20260905225911 | 75 | 8 | 5.2 | 8.7 | 0.00 | 0.02 | 0.01 | 1017.0 | |
| 20260905225429 | 75 | 39 | 4.3 | 8.7 | 0.00 | 0.02 | 0.01 | 1016.6 | |
| 20260905224902 | 75 | 39 | 4.3 | 8.7 | 0.00 | 0.02 | 0.01 | 1016.6 | |
| 20260905224035 | 75 | 27 | 6.1 | 8.7 | 0.00 | 0.02 | 0.01 | 1016.6 | |
| 20260905223903 | 75 | 32 | 6.1 | 8.7 | 0.00 | 0.02 | 0.01 | 1016.6 | |
| 20260905223237 | 75 | 20 | 5.2 | 7.8 | 0.00 | 0.02 | 0.01 | 1017.0 | |
| 20260905222902 | 75 | 20 | 5.2 | 7.8 | 0.00 | 0.02 | 0.01 | 1017.0 | |
| 20260905222035 | 76 | 37 | 3.5 | 7.8 | 0.00 | 0.02 | 0.01 | 1017.0 | |
| 20260905220626 | 76 | 352 | 3.5 | 8.7 | 0.00 | 0.02 | 0.01 | 1017.0 | |
| 20260905220034 | 76 | 7 | 4.3 | 8.7 | 0.00 | 0.02 | 0.01 | 1017.0 | |
| 20260905215907 | 76 | 352 | 3.5 | 8.7 | 0.00 | 0.02 | 0.01 | 1017.0 | |
| 20260905215437 | 77 | 25 | 6.1 | 10.4 | 0.00 | 0.02 | 0.01 | 1017.0 | |
| 20260905214900 | 77 | 25 | 6.1 | 10.4 | 0.00 | 0.02 | 0.01 | 1017.0 | |
| 20260905214034 | 78 | 339 | 7.0 | 10.4 | 0.00 | 0.02 | 0.01 | 1016.6 | |
| 20260905213604 | 77 | 0 | 3.5 | 10.4 | 0.00 | 0.02 | 0.01 | 1016.6 | |
| 20260905212904 | 77 | 0 | 3.5 | 10.4 | 0.00 | 0.02 | 0.01 | 1016.6 | |
| 20260905212034 | 77 | 20 | 7.0 | 10.4 | 0.00 | 0.02 | 0.01 | 1016.6 | |
| 20260905211349 | 79 | 52 | 7.0 | 11.3 | 0.00 | 0.02 | 0.01 | 1016.3 | |
| 20260905210901 | 79 | 52 | 7.0 | 11.3 | 0.00 | 0.02 | 0.01 | 1016.3 | |
| 20260905210034 | 79 | 34 | 7.8 | 10.4 | 0.00 | 0.02 | 0.01 | 1016.3 | |
| 20260905204033 | 78 | 30 | 5.2 | 8.7 | 0.00 | 0.02 | 0.01 | 1017.0 | |
| 20260905202033 | 78 | 333 | 2.6 | 7.8 | 0.00 | 0.02 | 0.01 | 1017.0 | |
| 20260905201353 | 76 | 330 | 4.3 | 7.8 | 0.00 | 0.02 | 0.01 | 1017.0 | |
| 20260905200904 | 76 | 330 | 4.3 | 7.8 | 0.00 | 0.02 | 0.01 | 1017.0 | |
| 20260905200618 | 77 | 18 | 4.3 | 7.0 | 0.00 | 0.02 | 0.01 | 1017.0 | |
| 20260905200035 | 77 | 338 | 6.1 | 7.8 | 0.00 | 0.02 | 0.01 | 1017.0 | |
| 20260905195902 | 77 | 18 | 4.3 | 7.0 | 0.00 | 0.02 | 0.01 | 1017.0 | |
| 20260905195433 | 77 | 10 | 4.3 | 7.0 | 0.00 | 0.02 | 0.01 | 1017.0 | |
| 20260905194900 | 77 | 10 | 4.3 | 7.0 | 0.00 | 0.02 | 0.01 | 1017.0 | |
| 20260905194430 | 76 | 4 | 5.2 | 7.8 | 0.00 | 0.02 | 0.01 | 1017.0 | |
| 20260905194035 | 77 | 49 | 5.2 | 7.8 | 0.00 | 0.02 | 0.01 | 1017.3 | |
| 20260905193904 | 76 | 4 | 5.2 | 7.8 | 0.00 | 0.02 | 0.01 | 1017.0 | |
| 20260905192034 | 75 | 14 | 5.2 | 9.6 | 0.00 | 0.02 | 0.01 | 1017.3 | |
| 20260905190035 | 76 | 59 | 5.2 | 8.7 | 0.00 | 0.02 | 0.01 | 1017.0 | |
| 20260905184921 | 75 | 20 | 6.1 | 12.2 | 0.00 | 0.02 | 0.01 | 1017.0 | |
| 20260905184035 | 76 | 46 | 7.0 | 11.3 | 0.00 | 0.02 | 0.01 | 1017.0 | |
| 20260905182231 | 75 | 49 | 6.1 | 8.7 | 0.00 | 0.02 | 0.01 | 1017.3 | |
| 20260905182034 | 74 | 6 | 6.1 | 8.7 | 0.00 | 0.02 | 0.01 | 1017.0 | |
| 20260905181900 | 75 | 49 | 6.1 | 8.7 | 0.00 | 0.02 | 0.01 | 1017.3 | |
| 20260905180034 | 74 | 8 | 7.0 | 9.6 | 0.00 | 0.02 | 0.01 | 1017.3 | |
| 20260905174034 | 75 | 44 | 4.3 | 8.7 | 0.00 | 0.02 | 0.01 | 1017.3 | |
| 20260905173505 | 75 | 25 | 5.2 | 7.8 | 0.00 | 0.02 | 0.01 | 1017.3 | |
| 20260905172913 | 75 | 25 | 5.2 | 7.8 | 0.00 | 0.02 | 0.01 | 1017.3 | |
| 20260905172034 | 75 | 46 | 3.5 | 8.7 | 0.00 | 0.02 | 0.01 | 1017.7 | |
| 20260905170420 | 74 | 8 | 5.2 | 10.4 | 0.00 | 0.02 | 0.01 | 1017.3 | |
| 20260905170033 | 74 | 34 | 5.2 | 10.4 | 0.00 | 0.02 | 0.01 | 1017.3 | |
| 20260905165921 | 74 | 8 | 5.2 | 10.4 | 0.00 | 0.02 | 0.01 | 1017.3 | |
| 20260905165306 | 75 | 145 | 6.1 | 8.7 | 0.00 | 0.02 | 0.01 | 1017.3 | |
| 20260905164900 | 75 | 145 | 6.1 | 8.7 | 0.00 | 0.02 | 0.01 | 1017.3 | |
| 20260905164329 | 75 | 38 | 5.2 | 10.4 | 0.00 | 0.02 | 0.01 | 1017.7 | |
| 20260905164034 | 74 | 359 | 6.1 | 10.4 | 0.00 | 0.02 | 0.01 | 1017.7 | |
| 20260905163901 | 75 | 38 | 5.2 | 10.4 | 0.00 | 0.02 | 0.01 | 1017.7 | |
| 20260905162338 | 75 | 51 | 6.1 | 9.6 | 0.00 | 0.02 | 0.01 | 1017.3 | |
| 20260905162034 | 76 | 45 | 5.2 | 9.6 | 0.00 | 0.02 | 0.01 | 1017.3 | |
| 20260905161903 | 75 | 51 | 6.1 | 9.6 | 0.00 | 0.02 | 0.01 | 1017.3 | |
| 20260905161442 | 74 | 52 | 5.2 | 10.4 | 0.00 | 0.02 | 0.01 | 1017.3 | |
| 20260905160916 | 75 | 41 | 6.1 | 11.3 | 0.00 | 0.02 | 0.01 | 1017.3 | |
| 20260905160907 | 74 | 52 | 5.2 | 10.4 | 0.00 | 0.02 | 0.01 | 1017.3 | |
| 20260905160034 | 75 | 25 | 5.2 | 11.3 | 0.00 | 0.02 | 0.01 | 1017.3 | |
| 20260905155904 | 75 | 41 | 6.1 | 11.3 | 0.00 | 0.02 | 0.01 | 1017.3 | |
| 20260905155545 | 73 | 35 | 5.2 | 9.6 | 0.00 | 0.02 | 0.01 | 1017.3 | |
| 20260905154903 | 73 | 35 | 5.2 | 9.6 | 0.00 | 0.02 | 0.01 | 1017.3 | |
| 20260905154901 | 72 | 1 | 7.0 | 9.6 | 0.00 | 0.02 | 0.01 | 1017.3 | |
| 20260905154034 | 72 | 28 | 6.1 | 9.6 | 0.00 | 0.02 | 0.01 | 1017.3 | |
| 20260905153919 | 72 | 1 | 7.0 | 9.6 | 0.00 | 0.02 | 0.01 | 1017.3 | |
| 20260905152458 | 72 | 8 | 5.2 | 8.7 | 0.00 | 0.02 | 0.01 | 1017.0 | |
| 20260905152033 | 72 | 23 | 4.3 | 8.7 | 0.00 | 0.02 | 0.01 | 1016.6 | |
| 20260905151913 | 72 | 8 | 5.2 | 8.7 | 0.00 | 0.02 | 0.01 | 1017.0 | |
| 20260905151320 | 72 | 14 | 7.0 | 9.6 | 0.00 | 0.02 | 0.01 | 1017.0 | |
| 20260905150901 | 72 | 14 | 7.0 | 9.6 | 0.00 | 0.02 | 0.01 | 1017.0 | |
| 20260905150035 | 72 | 6 | 6.1 | 9.6 | 0.00 | 0.02 | 0.01 | 1017.0 | |
| 20260905145632 | 72 | 27 | 3.5 | 7.0 | 0.00 | 0.02 | 0.01 | 1017.0 | |
| 20260905145548 | 72 | 27 | 3.5 | 7.0 | 0.00 | 0.02 | 0.01 | 1017.0 | |
| 20260905144904 | 72 | 27 | 3.5 | 7.0 | 0.00 | 0.02 | 0.01 | 1017.0 | |
| 20260905144434 | 71 | 41 | 5.2 | 10.4 | 0.00 | 0.02 | 0.01 | 1016.6 | |
| 20260905144035 | 71 | 37 | 5.2 | 10.4 | 0.00 | 0.02 | 0.01 | 1016.6 | |
| 20260905143902 | 71 | 41 | 5.2 | 10.4 | 0.00 | 0.02 | 0.01 | 1016.6 | |
| 20260905143410 | 72 | 52 | 4.3 | 9.6 | 0.00 | 0.02 | 0.01 | 1016.6 | |
| 20260905142900 | 72 | 52 | 4.3 | 9.6 | 0.00 | 0.02 | 0.01 | 1016.6 | |
| 20260905142035 | 72 | 0 | 6.1 | 9.6 | 0.00 | 0.02 | 0.01 | 1016.6 | |
| 20260905141124 | 72 | 38 | 6.1 | 8.7 | 0.00 | 0.02 | 0.01 | 1016.3 | |
| 20260905140901 | 72 | 38 | 6.1 | 8.7 | 0.00 | 0.02 | 0.01 | 1016.3 | |
| 20260905140034 | 72 | 70 | 5.2 | 9.6 | 0.00 | 0.02 | 0.01 | 1016.0 | |
| 20260905134034 | 72 | 44 | 3.5 | 10.4 | 0.00 | 0.02 | 0.01 | 1016.0 | |
| 20260905132400 | 71 | 31 | 5.2 | 9.6 | 0.00 | 0.02 | 0.01 | 1016.0 | |
| 20260905132034 | 71 | 52 | 5.2 | 9.6 | 0.00 | 0.02 | 0.01 | 1015.6 | |
| 20260905131925 | 71 | 31 | 5.2 | 9.6 | 0.00 | 0.02 | 0.01 | 1016.0 | |
| 20260905130900 | 71 | 4 | 4.3 | 8.7 | 0.00 | 0.02 | 0.01 | 1015.6 | |
| 20260905130034 | 71 | 42 | 7.0 | 12.2 | 0.00 | 0.02 | 0.01 | 1015.6 | |
| 20260905124033 | 71 | 28 | 7.0 | 10.4 | 0.00 | 0.02 | 0.01 | 1015.3 | |
| 20260905123358 | 71 | 8 | 6.1 | 8.7 | 0.00 | 0.02 | 0.01 | 1015.3 | |
| 20260905122859 | 71 | 8 | 6.1 | 8.7 | 0.00 | 0.02 | 0.01 | 1015.3 | |
| 20260905122035 | 70 | 359 | 6.1 | 7.8 | 0.00 | 0.02 | 0.01 | 1015.3 | |
| 20260905121902 | 70 | 28 | 6.1 | 7.8 | 0.00 | 0.02 | 0.01 | 1015.3 | |
| 20260905121231 | 70 | 18 | 4.3 | 6.1 | 0.00 | 0.02 | 0.01 | 1015.3 | |
| 20260905120902 | 70 | 18 | 4.3 | 6.1 | 0.00 | 0.02 | 0.01 | 1015.3 | |
| 20260905120312 | 70 | 352 | 3.5 | 5.2 | 0.00 | 0.02 | 0.01 | 1015.3 | |
| 20260905120035 | 70 | 357 | 2.6 | 5.2 | 0.00 | 0.02 | 0.01 | 1015.3 | |
| 20260905115901 | 70 | 352 | 3.5 | 5.2 | 0.00 | 0.02 | 0.01 | 1015.3 | |
| 20260905115251 | 70 | 311 | 0.0 | 0.0 | 0.00 | 0.02 | 0.01 | 1015.3 | |
| 20260905114900 | 70 | 311 | 0.0 | 0.0 | 0.00 | 0.02 | 0.01 | 1015.3 | |
| 20260905114146 | 70 | 311 | 0.0 | 3.5 | 0.00 | 0.02 | 0.01 | 1014.6 | |
| 20260905114034 | 70 | 311 | 0.0 | 2.6 | 0.00 | 0.02 | 0.01 | 1014.6 | |
| 20260905113900 | 70 | 311 | 0.0 | 3.5 | 0.00 | 0.02 | 0.01 | 1014.6 | |
| 20260905113154 | 70 | 18 | 2.6 | 4.3 | 0.00 | 0.02 | 0.01 | 1014.6 | |
| 20260905112859 | 70 | 18 | 2.6 | 4.3 | 0.00 | 0.02 | 0.01 | 1014.6 | |
| 20260905112421 | 69 | 18 | 1.7 | 3.5 | 0.00 | 0.02 | 0.01 | 1014.6 | |
| 20260905112033 | 69 | 353 | 2.6 | 3.5 | 0.00 | 0.02 | 0.01 | 1014.6 | |
| 20260905111859 | 69 | 18 | 1.7 | 3.5 | 0.00 | 0.02 | 0.01 | 1014.6 | |
| 20260905111236 | 69 | 21 | 1.7 | 2.6 | 0.00 | 0.02 | 0.01 | 1014.3 | |
| 20260905110859 | 69 | 21 | 1.7 | 2.6 | 0.00 | 0.02 | 0.01 | 1014.3 | |
| 20260905110357 | 70 | 20 | 0.0 | 0.0 | 0.00 | 0.02 | 0.01 | 1014.3 | |
| 20260905110035 | 69 | 20 | 0.0 | 0.0 | 0.00 | 0.02 | 0.01 | 1014.3 | |
| 20260905105901 | 70 | 20 | 0.0 | 0.0 | 0.00 | 0.02 | 0.01 | 1014.3 | |
| 20260905105255 | 70 | 20 | 0.0 | 2.6 | 0.00 | 0.02 | 0.01 | 1013.9 | |
| 20260905104901 | 70 | 20 | 0.0 | 2.6 | 0.00 | 0.02 | 0.01 | 1013.9 | |
| 20260905104255 | 70 | 3 | 1.7 | 3.5 | 0.00 | 0.02 | 0.01 | 1013.9 | |
| 20260905104035 | 70 | 3 | 0.0 | 3.5 | 0.00 | 0.02 | 0.01 | 1013.9 | |
| 20260905103900 | 70 | 3 | 1.7 | 3.5 | 0.00 | 0.02 | 0.01 | 1013.9 | |
| 20260905102859 | 70 | 28 | 2.6 | 4.3 | 0.00 | 0.02 | 0.01 | 1013.9 | |
| 20260905102150 | 70 | 352 | 2.6 | 3.5 | 0.01 | 0.02 | 0.01 | 1013.9 | |
| 20260905102033 | 70 | 345 | 2.6 | 3.5 | 0.01 | 0.02 | 0.01 | 1013.9 | |
| 20260905101900 | 70 | 352 | 2.6 | 3.5 | 0.01 | 0.02 | 0.01 | 1013.9 |